Temp
-8 -8 -7 -7 -7 -7 -7 -7 -6 -5 -5 -4 -3 -1 0 -2 -2 0 1 3 4 4 5 5 6 6 6 6 5 5 4 4 4 4 4 5 5 4 4 4 4 4 4 4
-8 -6 -7 -7 -7 -7 -8 -7 -7 -5 -4 -3 -3 -2 -1 -2 -1 1 1 2 4 4 4 5 5 5 5 6 5 5 4 4 4 4 4 4 4 4 4 4 3 4 4 4
-7 -5 -6 -7 -5 -6 -6 -7 -6 -5 -3 -3 -3 -2 -1 -2 -1 1 1 3 4 5 4 5 5 5 5 5 5 5 5 4 4 4 4 3 3 4 4 3 3 3 4 4
-5 -5 -5 -5 -5 -6 -6 -5 -5 -5 -5 -2 -2 -0 1 -1 -2 0 2 3 4 4 4 5 5 5 5 5 5 5 4 4 4 4 4 4 4 4 4 3 3 3 3 3
-3 -3 -4 -4 -3 -4 -5 -4 -4 -4 -4 -2 -3 -2 0 -0 2 1 1 2 4 5 5 5 5 5 5 5 6 5 4 4 4 4 4 3 3 3 3 3 2 3 3 3
-1 -3 -2 -2 -3 -3 -3 -4 -3 -4 -2 -1 -1 -1 0 -1 1 1 1 2 3 4 4 5 5 5 5 5 5 4 4 4 4 4 3 3 3 3 3 3 2 3 3 3
-2 -1 -2 -1 -1 -3 -3 -2 -1 -1 -1 0 -1 -2 0 -0 1 1 2 3 3 4 3 3 4 5 5 5 5 5 5 5 4 4 4 3 3 3 3 3 3 3 3 3
-4 -1 -2 -2 -2 -2 -2 -2 -1 -0 1 1 -3 -0 2 2 2 3 3 3 2 2 2 3 4 4 5 5 5 5 5 5 4 4 4 3 3 3 3 3 3 2 2 2
-3 -2 -1 -2 -2 -2 -2 -2 -2 -2 -2 -0 -0 -0 2 2 2 3 3 3 2 2 2 3 3 3 4 5 5 5 5 5 4 4 3 3 3 3 3 3 2 1 1 2
-3 -4 -1 -2 -2 -1 -2 -2 -1 -1 0 1 1 -0 3 3 3 3 3 4 4 4 1 1 2 3 3 4 4 5 5 5 5 4 3 3 3 3 3 2 2 1 0 1
-4 -4 -3 -2 -2 -2 -2 -2 -2 -1 -2 0 1 3 1 1 2 2 3 3 3 3 3 2 1 2 4 4 4 4 4 4 4 4 3 3 3 2 2 2 2 1 1 1
-4 -5 -4 -2 -2 -2 -2 -2 -1 -0 -0 -2 -1 2 1 2 2 2 1 2 3 4 3 3 0 2 2 3 4 4 4 4 4 4 3 3 3 2 2 2 2 1 1 2
-5 -5 -4 -2 -2 -2 -2 -2 -2 -2 -1 -0 1 3 1 2 2 2 2 2 2 2 2 2 2 2 2 2 3 4 4 4 4 4 4 3 3 1 2 2 2 3 2 1
-6 -6 -5 -2 -3 -2 -3 -2 -2 -2 -1 0 0 2 2 1 1 2 2 3 3 2 3 3 2 2 2 3 3 4 4 4 4 4 4 3 3 4 2 2 2 2 2 1
-7 -7 -6 -5 -4 -4 -4 -3 -3 -3 -2 -1 0 -0 2 1 1 1 1 2 2 3 3 2 3 2 2 3 3 4 4 4 4 4 4 4 4 3 3 2 2 2 1 1
-7 -7 -7 -6 -5 -4 -4 -3 -3 -2 -2 -3 -2 -2 0 1 2 1 2 1 1 1 2 3 3 3 3 3 3 4 4 4 4 4 4 3 3 3 3 2 2 2 2 1
-8 -8 -7 -6 -5 -5 -5 -3 -2 -1 -1 -1 -2 0 0 0 1 1 1 1 1 1 1 2 3 3 3 3 4 4 4 4 4 4 4 4 3 3 2 3 2 2 1 0
-8 -8 -8 -7 -6 -5 -3 -3 -2 -2 -1 -2 -2 -1 -1 -0 -0 -0 1 1 1 1 2 2 2 2 3 3 4 4 4 4 4 4 4 4 3 2 3 3 2 2 2 2
-8 -9 -9 -8 -6 -5 -3 -4 -4 -3 -2 -2 -2 -2 -1 -1 -1 -1 -0 0 1 1 1 1 2 2 2 2 3 3 4 4 4 4 4 4 3 3 3 3 2 2 2 2
-8 -9 -10 -9 -7 -6 -5 -6 -4 -4 -4 -4 -3 -3 -2 -1 -2 -2 -2 -0 0 1 1 1 1 2 2 3 3 3 3 4 4 4 4 4 3 2 2 2 2 2 2 1
-8 -9 -10 -10 -9 -8 -6 -6 -6 -6 -6 -6 -5 -4 -3 -2 -2 -2 -2 -1 -1 -0 1 1 2 2 2 2 2 2 3 3 3 4 3 3 3 2 1 1 -0 0 0 0
-9 -9 -10 -11 -10 -9 -7 -7 -7 -7 -6 -7 -7 -7 -6 -5 -4 -3 -3 -3 -2 -1 -1 -0 0 1 1 1 1 1 2 2 2 2 3 2 2 1 1 0 1 1 0 1
-10 -9 -9 -9 -9 -9 -8 -8 -8 -8 -8 -7 -7 -7 -7 -7 -6 -5 -5 -4 -3 -3 -2 -1 -1 -0 0 0 0 1 1 1 2 2 0 -0 0 0 -0 0 -0 0 0 -0
-9 -9 -9 -9 -9 -8 -9 -9 -9 -9 -9 -8 -8 -8 -8 -8 -8 -7 -7 -6 -5 -5 -4 -3 -2 -1 -1 -1 -1 -0 -0 0 0 0 -1 -1 -1 -1 -1 -1 -2 -2 -2 -1
-10 -10 -10 -9 -9 -9 -9 -9 -9 -9 -9 -9 -9 -8 -8 -8 -8 -8 -7 -7 -6 -5 -5 -4 -3 -3 -3 -3 -2 -2 -1 -1 -1 -1 -2 -2 -2 -2 -2 -2 -1 -2 -2 -1
-10 -10 -10 -10 -10 -10 -9 -10 -10 -10 -9 -9 -9 -9 -8 -8 -8 -8 -8 -8 -6 -5 -5 -5 -5 -5 -4 -4 -4 -3 -3 -3 -3 -2 -3 -3 -3 -3 -3 -2 -2 -2 -2 -2
Height
3018 3016 3010 3009 3007 3006 3003 2999 2995 2994 2993 2994 2993 2996 2998 3004 3006 3014 3022 3032 3040 3049 3057 3066 3072 3078 3084 3089 3094 3100 3105 3111 3115 3119 3123 3128 3131 3135 3139 3142 3145 3146 3148 3151
3017 3008 3007 3004 3001 3000 2997 2996 2991 2990 2990 2991 2991 2995 2999 2999 3001 3007 3017 3026 3035 3043 3051 3059 3066 3072 3078 3085 3091 3096 3102 3107 3113 3117 3120 3125 3128 3132 3135 3139 3141 3142 3145 3147
3014 3007 3002 3000 2994 2996 2991 2992 2987 2989 2983 2988 2989 2990 2991 2995 2998 3001 3010 3022 3031 3038 3046 3054 3061 3068 3075 3081 3087 3093 3098 3104 3109 3113 3116 3120 3123 3126 3129 3131 3137 3140 3142 3143
3008 3003 2998 2995 2990 2992 2989 2986 2987 2989 2988 2987 2991 2989 2986 2989 2993 2994 3003 3014 3025 3035 3043 3051 3057 3065 3071 3079 3084 3089 3094 3099 3105 3109 3113 3117 3121 3124 3128 3129 3135 3137 3139 3141
3007 3002 2995 2986 2981 2981 2982 2981 2985 2988 2987 2987 2987 2987 2977 2980 2982 2990 3000 3010 3020 3029 3038 3045 3054 3062 3071 3076 3080 3086 3091 3095 3100 3105 3109 3112 3116 3121 3124 3127 3130 3133 3135 3138
3003 3001 2998 2990 2982 2980 2978 2979 2982 2983 2986 2988 2986 2986 2977 2969 2970 2986 2997 3007 3015 3023 3033 3042 3052 3060 3066 3072 3076 3082 3086 3091 3096 3100 3105 3109 3112 3116 3118 3121 3125 3128 3131 3134
3003 2999 2996 2993 2988 2984 2984 2985 2986 2987 2985 2980 2981 2987 2978 2977 2979 2987 2995 3002 3010 3012 3017 3034 3046 3052 3059 3065 3071 3078 3082 3086 3092 3096 3100 3104 3108 3111 3114 3117 3121 3124 3127 3130
3005 3000 2997 2994 2990 2987 2987 2985 2984 2984 2983 2982 2989 2983 2977 2977 2982 2990 2999 3004 3009 3017 3020 3032 3041 3048 3056 3063 3068 3073 3077 3081 3086 3090 3095 3099 3102 3106 3109 3112 3116 3119 3121 3125
3005 3001 2998 2994 2992 2995 2989 2992 2992 2991 2988 2987 2983 2977 2975 2975 2979 2985 2993 3001 3008 3006 3019 3027 3035 3043 3051 3057 3062 3068 3073 3077 3081 3085 3089 3093 3096 3100 3104 3107 3110 3112 3116 3119
3004 3001 2997 2995 2994 2991 2992 2994 2994 2989 2985 2981 2980 2978 2978 2975 2976 2980 2985 2993 3003 3011 3016 3020 3030 3036 3043 3051 3059 3062 3067 3073 3077 3080 3083 3087 3091 3095 3098 3101 3101 3101 3105 3111
3003 3001 2997 2995 2993 2993 2992 2990 2990 2988 2988 2987 2983 2977 2976 2977 2976 2979 2982 2989 2996 3005 3013 3014 3008 3030 3038 3046 3051 3057 3062 3066 3070 3073 3076 3080 3084 3088 3091 3094 3096 3095 3098 3101
3002 2997 2992 2989 2988 2989 2989 2990 2990 2991 2991 2990 2987 2979 2974 2973 2974 2978 2983 2989 2995 3000 3007 3010 3012 3024 3031 3039 3045 3050 3056 3060 3064 3068 3070 3073 3077 3080 3084 3087 3089 3090 3091 3096
2998 2995 2992 2986 2986 2984 2984 2985 2988 2988 2988 2986 2986 2982 2976 2973 2974 2979 2984 2987 2993 2998 3005 3012 3012 3018 3024 3032 3039 3044 3049 3054 3058 3060 3064 3066 3069 3072 3077 3080 3082 3086 3088 3091
2995 2991 2990 2987 2986 2985 2984 2983 2983 2985 2985 2983 2984 2983 2980 2978 2978 2980 2982 2985 2989 2996 3001 3004 3011 3016 3021 3028 3033 3038 3044 3048 3051 3053 3057 3060 3064 3065 3070 3073 3076 3079 3083 3085
2988 2984 2984 2982 2982 2981 2979 2980 2981 2980 2980 2978 2979 2981 2980 2982 2983 2985 2982 2982 2985 2991 2997 3002 3007 3013 3018 3024 3028 3032 3036 3040 3044 3046 3050 3054 3058 3060 3062 3066 3070 3074 3077 3080
2982 2978 2977 2973 2975 2975 2971 2971 2972 2974 2974 2973 2972 2971 2976 2979 2981 2982 2985 2986 2988 2990 2993 2997 3001 3006 3012 3017 3020 3024 3028 3032 3036 3039 3042 3047 3049 3053 3056 3059 3063 3067 3071 3074
2978 2975 2973 2966 2968 2966 2961 2956 2959 2961 2964 2966 2965 2968 2969 2972 2974 2976 2979 2982 2985 2988 2992 2993 2995 2999 3005 3009 3013 3016 3020 3024 3028 3031 3034 3039 3043 3047 3049 3053 3056 3059 3063 3066
2970 2971 2971 2965 2966 2959 2951 2950 2950 2950 2954 2957 2959 2962 2964 2966 2967 2970 2971 2973 2977 2981 2985 2988 2990 2993 2995 2999 3004 3007 3010 3015 3018 3022 3026 3030 3035 3039 3043 3046 3049 3052 3055 3057
2962 2965 2965 2964 2960 2952 2948 2948 2948 2947 2948 2949 2950 2954 2957 2959 2962 2965 2968 2970 2973 2974 2976 2978 2981 2985 2988 2991 2993 2997 3002 3005 3009 3012 3016 3021 3025 3029 3033 3037 3041 3043 3046 3048
2953 2955 2961 2960 2957 2951 2947 2944 2944 2945 2945 2945 2947 2948 2951 2954 2957 2960 2961 2962 2963 2966 2968 2971 2974 2976 2978 2982 2985 2988 2991 2995 2999 3003 3007 3011 3014 3019 3023 3026 3030 3032 3035 3037
2950 2950 2950 2954 2952 2946 2945 2943 2944 2946 2949 2943 2944 2945 2947 2950 2953 2954 2954 2955 2957 2958 2962 2964 2964 2966 2969 2972 2975 2979 2982 2985 2989 2993 2996 3000 3004 3009 3013 3016 3018 3022 3025 3027
2946 2947 2946 2949 2950 2946 2941 2940 2944 2942 2940 2940 2942 2944 2945 2946 2945 2946 2948 2949 2950 2951 2953 2955 2957 2960 2962 2964 2967 2971 2974 2976 2979 2983 2986 2990 2994 2999 3003 3005 3010 3011 3014 3016
2943 2942 2941 2943 2940 2939 2939 2939 2938 2937 2938 2938 2938 2938 2939 2940 2942 2942 2943 2944 2944 2946 2947 2948 2949 2951 2954 2956 2958 2961 2964 2968 2971 2974 2978 2983 2987 2989 2994 2997 3000 3002 3003 3005
2935 2937 2938 2938 2936 2936 2936 2937 2937 2936 2935 2935 2935 2934 2933 2934 2935 2937 2938 2940 2941 2941 2942 2942 2944 2945 2946 2948 2950 2953 2957 2960 2964 2967 2971 2974 2978 2982 2985 2988 2990 2992 2995 2995
2932 2932 2932 2931 2932 2932 2932 2931 2930 2931 2931 2931 2930 2930 2930 2930 2930 2930 2932 2933 2935 2937 2937 2939 2940 2940 2941 2942 2944 2946 2949 2953 2956 2959 2963 2966 2969 2972 2975 2978 2980 2983 2984 2986
2927 2926 2926 2925 2925 2925 2925 2924 2923 2924 2924 2923 2924 2923 2923 2924 2925 2926 2927 2927 2929 2930 2932 2934 2935 2937 2938 2938 2940 2941 2944 2946 2948 2951 2954 2957 2960 2963 2965 2968 2971 2973 2975 2976
Wind_Speed
8 10 17 15 18 19 13 17 17 18 8 20 32 39 37 26 31 42 44 52 43 49 48 42 40 38 38 38 40 41 41 39 38 36 34 32 30 29 25 24 24 23 22 19
12 16 12 18 19 19 21 21 23 17 18 17 19 30 35 30 36 42 45 54 51 47 45 45 42 43 41 38 39 41 40 38 36 34 32 31 30 27 25 26 26 24 20 17
15 11 14 14 17 19 25 22 21 11 2 11 4 19 38 35 29 47 45 50 54 55 48 46 44 45 40 40 40 40 40 38 37 35 34 33 32 30 30 30 28 24 21 20
10 10 12 13 21 14 19 18 17 14 10 3 7 4 28 35 40 42 51 50 53 52 48 45 47 44 41 38 39 40 40 39 37 35 33 32 29 29 28 29 28 25 22 19
12 16 21 23 20 22 23 22 18 16 11 4 5 4 16 30 31 39 48 48 51 55 50 45 47 42 38 39 39 38 38 38 36 35 33 32 30 28 27 30 29 28 24 22
13 13 12 17 16 12 12 12 10 8 5 5 13 7 12 23 40 46 47 47 51 49 50 47 45 40 40 41 40 39 39 38 37 36 34 32 31 29 31 31 34 30 27 25
17 12 9 11 15 14 13 4 5 4 3 2 5 10 18 12 27 38 44 39 48 61 53 46 44 45 45 45 42 38 37 36 35 35 34 33 32 30 29 32 34 32 31 27
7 5 7 10 10 11 8 13 6 2 3 3 8 8 2 9 18 28 34 39 47 58 42 45 47 45 43 43 39 38 36 35 35 36 35 35 34 32 29 34 36 33 32 30
5 5 11 10 8 4 4 2 3 3 2 3 5 7 6 15 23 27 31 37 43 56 46 48 49 45 41 42 40 38 35 34 35 32 33 34 33 36 34 34 36 35 37 33
8 8 9 7 7 9 7 4 3 1 2 2 1 8 3 11 18 30 38 39 39 50 38 36 49 45 38 36 34 37 35 32 29 30 32 32 32 32 34 35 40 47 37 35
12 9 8 11 6 5 9 6 3 3 2 3 4 1 10 6 19 26 34 37 32 38 46 45 38 43 36 31 33 33 34 32 29 28 29 32 34 34 34 37 35 24 26 36
13 9 10 17 15 13 11 10 7 5 4 3 4 5 11 4 13 21 29 37 43 41 33 31 46 35 31 28 31 33 32 32 28 28 28 31 34 38 36 33 29 26 26 30
7 8 6 4 8 15 13 16 18 15 10 7 3 1 12 18 2 15 20 30 36 36 39 37 28 40 35 32 28 32 34 32 30 28 27 26 30 37 32 31 29 26 28 27
13 16 15 10 2 3 6 10 14 16 12 8 11 3 6 16 23 8 10 11 32 38 37 36 36 38 31 33 31 33 32 31 31 31 30 27 24 27 31 32 32 30 29 30
21 24 25 26 26 27 26 19 11 17 22 16 15 16 19 10 4 5 15 13 13 34 38 40 40 38 37 40 42 42 39 36 34 34 33 28 24 22 26 33 35 34 35 36
20 18 23 30 31 28 30 28 29 30 27 23 26 28 20 16 16 7 8 6 7 15 23 28 31 32 38 41 41 40 40 37 35 36 37 33 32 28 26 30 34 34 37 39
23 19 13 13 12 15 17 33 35 36 34 32 33 30 23 17 16 21 24 18 15 13 15 19 25 28 32 34 36 38 39 40 39 38 37 36 36 34 30 29 30 34 36 37
29 23 15 10 10 8 10 14 14 22 28 30 33 29 24 25 22 18 25 25 24 23 21 21 19 22 25 30 38 34 37 39 42 43 41 38 36 38 37 34 31 29 30 33
34 28 14 6 11 17 17 12 8 12 15 20 22 21 23 25 24 24 22 24 27 27 26 25 26 25 26 24 27 33 37 36 39 42 42 43 41 39 38 38 35 33 34 33
16 27 21 9 5 4 3 4 19 20 18 15 12 11 12 17 24 24 28 29 28 28 30 30 32 31 31 32 31 29 35 40 39 39 39 41 42 41 40 39 40 39 38 37
13 13 29 21 10 10 17 16 7 7 3 5 5 5 7 10 12 14 17 18 20 23 27 33 33 34 34 34 33 35 33 34 41 42 41 42 42 41 42 43 39 42 41 42
12 8 9 15 8 11 5 8 12 13 10 12 9 6 4 5 8 12 12 11 12 14 20 26 26 30 34 35 35 34 36 35 35 41 43 43 42 41 44 42 44 42 40 41
12 17 5 10 6 6 2 0 7 12 16 23 20 14 11 10 9 8 9 10 11 13 15 16 17 24 28 29 35 33 33 34 33 32 38 38 39 36 36 39 40 42 41 37
18 14 18 15 8 14 15 10 13 15 13 11 17 18 16 17 17 17 18 19 19 19 16 16 18 21 22 27 29 33 33 33 33 32 33 35 38 38 37 40 40 43 45 44
16 16 18 22 21 22 22 26 28 23 26 23 24 26 26 25 24 23 22 23 23 23 21 19 19 18 20 20 24 27 30 31 32 32 34 35 37 38 38 39 40 41 41 40
27 27 23 23 21 18 15 16 15 17 19 23 26 29 33 34 31 28 25 24 24 26 25 21 20 17 15 15 17 20 22 25 27 29 30 32 33 34 35 35 36 37 37 38
Wind_Direction
280 257 241 262 278 258 261 275 267 251 253 213 220 227 235 249 236 203 207 205 206 197 202 202 200 205 204 203 201 198 198 199 200 201 204 207 210 208 214 211 211 215 218 224
275 268 276 279 264 259 255 265 269 262 262 208 219 226 233 257 238 202 202 203 206 200 205 205 201 204 203 204 200 199 200 202 204 206 206 208 209 213 215 214 214 215 216 219
270 299 274 266 261 248 257 252 248 256 157 185 233 247 239 235 232 192 196 204 207 203 202 203 201 202 202 202 200 200 201 203 206 207 209 209 208 211 216 214 212 210 213 216
299 317 294 268 272 253 246 242 240 236 300 162 181 275 244 251 252 204 190 201 202 199 204 204 203 200 203 202 202 202 203 205 208 209 212 212 216 219 221 211 209 211 217 221
322 340 329 310 300 243 245 265 251 250 245 129 219 273 267 272 203 185 196 197 200 197 201 203 200 202 203 204 205 204 205 207 209 211 213 213 218 220 219 214 213 215 218 219
312 308 328 349 353 5 60 153 200 206 197 215 194 217 289 265 174 190 191 200 200 195 200 203 202 204 207 207 207 206 206 208 210 212 215 216 219 223 222 216 215 216 221 220
316 296 313 339 340 1 20 73 134 160 199 28 172 192 243 208 191 191 196 199 206 192 196 200 201 207 211 211 208 210 212 212 212 214 218 218 221 225 224 218 215 218 224 223
311 325 322 332 328 335 345 22 25 342 198 115 187 240 236 177 189 198 203 206 204 213 212 197 208 211 214 211 211 213 216 217 217 217 217 219 222 225 226 218 217 222 223 222
305 279 320 320 308 306 321 330 327 274 303 197 231 279 204 181 181 193 201 203 210 215 208 203 208 211 214 213 214 216 218 220 221 221 221 222 226 227 228 226 222 226 227 224
275 291 296 283 291 273 255 272 273 222 357 319 264 284 118 226 198 196 201 211 207 216 212 220 206 208 213 215 218 220 217 222 225 224 228 230 232 231 231 238 235 222 232 225
265 258 276 286 256 241 246 262 238 319 341 326 303 326 335 262 222 212 205 201 206 212 233 236 214 205 208 221 221 218 219 222 225 227 232 235 234 237 236 236 247 225 232 231
274 268 265 280 280 265 243 237 236 244 178 206 285 331 15 327 220 213 210 198 194 207 223 246 201 202 212 223 217 216 220 222 225 229 234 238 234 233 236 237 247 248 227 239
263 254 284 272 273 253 248 246 234 243 264 239 293 36 61 61 141 204 210 208 208 212 214 215 213 211 212 208 215 216 218 221 226 231 236 241 238 231 232 234 248 224 226 231
275 260 243 271 307 231 223 249 244 233 246 244 219 231 103 63 62 81 181 197 202 207 207 216 211 215 208 206 216 224 222 227 231 235 237 240 246 242 233 231 233 229 225 219
273 261 265 267 266 264 262 251 248 233 235 245 254 237 227 263 304 44 92 115 183 210 214 219 213 210 215 213 224 228 231 231 234 237 238 238 242 247 242 229 231 231 232 227
276 265 270 274 273 270 267 263 253 248 248 247 256 260 254 236 246 279 188 147 130 163 198 215 222 222 222 224 230 232 233 234 236 238 238 236 235 236 239 235 233 235 233 238
270 266 278 275 274 276 267 261 258 255 255 254 250 264 275 271 255 249 242 240 237 209 194 197 208 219 226 227 230 233 235 234 235 237 240 241 239 238 236 236 237 238 241 245
263 262 260 276 283 251 267 262 244 247 251 254 252 254 257 259 255 254 237 237 243 244 226 216 218 224 227 230 231 234 235 233 235 236 240 242 241 241 243 240 241 245 248 249
254 251 244 245 236 281 264 277 252 247 260 254 260 254 251 255 254 248 242 233 237 239 240 238 235 231 231 235 237 238 237 236 237 239 240 241 240 240 241 244 243 242 243 245
249 231 229 238 242 247 306 294 243 260 266 267 262 259 240 239 238 241 242 244 243 239 242 242 239 237 235 235 236 238 234 238 238 238 241 240 238 237 238 241 238 239 242 244
236 229 218 231 249 269 248 264 259 218 245 226 218 213 215 213 219 227 234 237 237 238 238 239 241 244 245 242 240 239 240 237 234 235 235 236 235 234 235 238 240 243 243 244
243 223 209 213 231 258 271 275 243 251 222 179 153 147 143 171 189 206 218 231 238 240 244 242 242 243 242 243 243 241 238 240 240 234 229 229 232 232 233 239 235 241 243 248
243 228 229 217 221 194 72 313 238 241 251 264 268 264 258 254 249 257 261 259 262 268 269 266 259 246 243 244 240 240 240 237 238 237 234 228 225 229 230 233 236 239 245 244
259 250 240 258 278 261 240 264 268 267 256 271 292 287 275 269 269 268 265 272 280 284 278 272 264 256 250 242 238 235 235 234 231 226 227 229 231 232 236 239 242 246 243 240
261 274 275 262 270 274 278 272 271 273 259 264 262 269 269 269 269 269 271 270 265 261 263 260 257 252 248 245 241 236 233 229 229 228 229 230 231 233 235 236 241 244 247 250
272 281 269 266 273 273 281 295 285 267 259 253 259 261 264 265 267 269 265 261 258 253 251 247 244 247 246 241 238 235 233 233 232 232 232 233 235 237 239 241 244 247 250 252